Change the Weather History Date:

Wednesday, March 6, 2013

  Actual Average (EPKT) Record (EPKT)
Temperature  
Mean Temperature 46 °F -  
Max Temperature 57 °F 48 °F 59 °F (2002)
Min Temperature 34 °F 32 °F -5 °F (2004)
Degree Days  
Heating Degree Days 20    
Moisture  
Dew Point 32 °F    
Average Humidity 52    
Maximum Humidity 71    
Minimum Humidity 29    
Precipitation  
Precipitation 0.00 in 0.05 in - ()
Sea Level Pressure  
Sea Level Pressure 29.81 in    
Wind  
Wind Speed 13 mph ()    
Max Wind Speed 24 mph    
Max Gust Speed 31 mph    
Visibility 8.1 miles    
Events      
Averages and records for this station are not official NWS values.
T = Trace of Precipitation, MM = Missing Value Source: Averaged Metar Reports

Daily Weather History Graph

Daily Weather History Graph

Search for Another Location

Airport or City:

Trip Planner

Search our weather history database for the weather conditions in past years. The results will help you decide how hot, cold, wet, or windy it might be!

Date:

Astronomy

Mar. 06, 2013 Rise Set
Actual Time 6:20 AM CET 5:38 PM CET
Civil Twilight 5:48 AM CET 6:10 PM CET
Nautical Twilight 5:11 AM CET 6:47 PM CET
Astronomical Twilight 4:33 AM CET 7:25 PM CET
Moon 2:37 AM CET (3/6) 11:36 AM CET (3/6)
Length of Visible Light 12h 22m
Length of Day
11h 18m
Waning Crescent, 33% of the Moon is Illuminated
Mar 6
Waning Crescent
Mar 11
New
Mar 19
First Quarter
Mar 27
Full
Apr 3
Last Quarter

Hourly Weather History & Observations

Time (CET) Temp. Windchill Dew Point Humidity Pressure Visibility Wind Dir Wind Speed Gust Speed Precip Events Conditions
12:00 AM 37.4 °F 29.3 °F 23.0 °F 56% 29.95 in - SW 12.7 mph - N/A   Clear
12:30 AM 37.4 °F 29.3 °F 23.0 °F 56% 29.95 in - SW 12.7 mph - N/A   Clear
1:00 AM 37 °F - 24 °F 47% 29.99 in 12 mi SW 13.4 mph - -  
1:00 AM 37.4 °F 29.3 °F 23.0 °F 56% 29.95 in - SW 12.7 mph - N/A   Clear
1:30 AM 39.2 °F 31.6 °F 23.0 °F 52% 29.92 in - SW 12.7 mph - N/A   Clear
2:00 AM 37.4 °F 29.8 °F 24.8 °F 60% 29.92 in - WSW 11.5 mph - N/A   Clear
2:30 AM 37.4 °F 30.8 °F 23.0 °F 56% 29.92 in - WSW 9.2 mph - N/A   Clear
3:00 AM 39.2 °F 33.0 °F 23.0 °F 52% 29.89 in - SW 9.2 mph - N/A   Clear
3:30 AM 46.4 °F 40.4 °F 23.0 °F 40% 29.89 in - SW 13.8 mph - N/A   Clear
4:00 AM 46.4 °F 40.7 °F 23.0 °F 40% 29.89 in - SW 12.7 mph - N/A   Clear
4:30 AM 39.2 °F 32.5 °F 24.8 °F 56% 29.86 in - SW 10.4 mph - N/A   Clear
5:00 AM 37.4 °F 32.8 °F 24.8 °F 60% 29.86 in - WSW 5.8 mph - N/A   Clear
5:30 AM 37.4 °F 32.1 °F 24.8 °F 60% 29.86 in - SSW 6.9 mph - N/A   Clear
6:00 AM 39.2 °F 33.6 °F 24.8 °F 56% 29.86 in - WSW 8.1 mph - N/A   Clear
6:30 AM 41.0 °F 34.3 °F 24.8 °F 53% 29.86 in - WSW 11.5 mph - N/A   Clear
7:00 AM 48 °F - 26 °F 29% 29.86 in 19 mi SSW 20.1 mph - -   Clear
7:00 AM 48.2 °F - 24.8 °F 40% 29.83 in - SSW 20.7 mph - N/A   Clear
7:30 AM 48.2 °F - 26.6 °F 43% 29.83 in - SSW 19.6 mph 31.1 mph N/A   Clear
8:00 AM 50.0 °F - 28.4 °F 43% 29.83 in - SSW 19.6 mph - N/A   Clear
8:30 AM 50.0 °F - 28.4 °F 43% 29.83 in - SSW 19.6 mph - N/A   Clear
9:00 AM 51.8 °F - 30.2 °F 44% 29.83 in - SSW 19.6 mph - N/A   Clear
9:30 AM 51.8 °F - 30.2 °F 44% 29.83 in - SSW 23.0 mph - N/A   Clear
10:00 AM 51.8 °F - 32.0 °F 47% 29.83 in - SSW 20.7 mph - N/A   Clear
10:30 AM 53.6 °F - 33.8 °F 47% 29.83 in - SSW 20.7 mph - N/A   Clear
11:00 AM 53.6 °F - 33.8 °F 47% 29.83 in 6.2 mi SSW 21.9 mph - N/A   Partly Cloudy
11:30 AM 53.6 °F - 33.8 °F 47% 29.80 in - SSW 21.9 mph - N/A   Clear
12:00 PM 55.4 °F - 35.6 °F 47% 29.80 in - SSW 24.2 mph - N/A   Clear
12:30 PM 55.4 °F - 35.6 °F 47% 29.80 in - SSW 20.7 mph - N/A   Clear
1:00 PM 57 °F - 37 °F 35% 29.78 in 19 mi SSW 17.9 mph - -   Clear
1:00 PM 57.2 °F - 37.4 °F 48% 29.77 in - SSW 18.4 mph - N/A   Clear
1:30 PM 57.2 °F - 35.6 °F 44% 29.77 in - SSW 23.0 mph - N/A   Clear
2:00 PM 57.2 °F - 37.4 °F 48% 29.77 in 6.2 mi SSW 19.6 mph 31.1 mph N/A   Partly Cloudy
2:30 PM 57.2 °F - 37.4 °F 48% 29.74 in - SSW 23.0 mph - N/A   Clear
3:00 PM 57.2 °F - 37.4 °F 48% 29.77 in 6.2 mi SSW 20.7 mph - N/A   Partly Cloudy
3:30 PM 55.4 °F - 37.4 °F 51% 29.77 in 6.2 mi SSW 18.4 mph - N/A   Partly Cloudy
4:00 PM 53.6 °F - 35.6 °F 51% 29.74 in 6.2 mi South 17.3 mph - N/A   Partly Cloudy
4:30 PM 53.6 °F - 35.6 °F 51% 29.74 in 6.2 mi SSW 13.8 mph - N/A   Partly Cloudy
5:00 PM 51.8 °F - 35.6 °F 54% 29.74 in 6.2 mi SSW 12.7 mph - N/A   Scattered Clouds
5:30 PM 51.8 °F - 35.6 °F 54% 29.74 in 6.2 mi South 12.7 mph - N/A   Scattered Clouds
6:00 PM 51.8 °F - 35.6 °F 54% 29.74 in 6.2 mi South 11.5 mph - N/A   Mostly Cloudy
6:30 PM 51.8 °F - 37.4 °F 58% 29.74 in 6.2 mi SSW 10.4 mph - N/A   Mostly Cloudy
7:00 PM 51 °F - 37 °F 48% 29.76 in 12 mi SSW 13.4 mph - -   Mostly Cloudy
7:00 PM 51.8 °F - 37.4 °F 58% 29.74 in 6.2 mi SSW 12.7 mph - N/A   Mostly Cloudy
7:30 PM 51.8 °F - 37.4 °F 58% 29.74 in 6.2 mi SW 9.2 mph - N/A   Overcast
8:00 PM 51.8 °F - 37.4 °F 58% 29.74 in 6.2 mi SSW 13.8 mph - N/A   Overcast
8:30 PM 51.8 °F - 37.4 °F 58% 29.74 in 6.2 mi SSW 11.5 mph - N/A   Overcast
9:00 PM 50.0 °F - 39.2 °F 66% 29.74 in 6.2 mi SSW 11.5 mph - N/A   Overcast
9:30 PM 50.0 °F - 39.2 °F 66% 29.71 in - SW 9.2 mph - N/A   Clear
10:00 PM 50.0 °F - 39.2 °F 66% 29.71 in - SSW 9.2 mph - N/A   Clear
10:30 PM 50.0 °F - 39.2 °F 66% 29.71 in - SSW 11.5 mph - N/A   Clear
11:00 PM 46.4 °F 42.9 °F 37.4 °F 71% 29.71 in 6.2 mi SW 6.9 mph - N/A   Partly Cloudy
11:30 PM 48.2 °F - 37.4 °F 66% 29.68 in - SW 8.1 mph - N/A   Clear